Date,TemperatureHighF,TemperatureAvgF,TemperatureLowF,DewpointHighF,DewpointAvgF,DewpointLowF,HumidityHigh,HumidityAvg,HumidityLow,PressureMaxIn,PressureMinIn,WindSpeedMaxMPH,WindSpeedAvgMPH,GustSpeedMaxMPH,PrecipitationSumIn
2013-1-1,33,27,18,30,22,11,88,81,69,30.19,30.01,0,-999,0,0.00
2013-1-2,35,24,14,18,12,8,80,61,33,30.20,30.11,0,-999,0,0.00
2013-1-3,41,30,21,24,20,16,84,66,44,30.36,30.17,0,-999,0,0.00
2013-1-4,44,33,22,23,20,17,82,60,37,30.40,30.27,0,-999,0,0.00
2013-1-5,41,36,30,29,24,19,76,62,55,30.28,30.11,0,-999,0,0.00
2013-1-6,40,32,26,28,20,15,79,63,40,30.31,30.13,0,-999,0,0.00
2013-1-7,51,37,25,22,18,14,63,47,30,30.30,30.09,0,-999,0,0.00
2013-1-8,56,44,31,43,27,20,88,54,27,30.18,30.03,0,-999,0,0.00
2013-1-9,56,48,43,43,39,29,89,71,49,30.38,30.16,0,-999,0,0.00
2013-1-10,54,48,41,50,43,29,90,83,47,30.31,29.80,0,-999,0,0.00
2013-1-11,63,54,46,46,44,42,88,69,49,29.83,29.74,0,-999,0,0.00
2013-1-12,56,42,30,46,33,24,86,71,44,29.95,29.79,0,-999,0,0.00
2013-1-13,29,21,13,25,16,7,84,78,72,30.29,29.87,0,-999,0,0.00
2013-1-14,26,17,12,18,10,6,79,74,65,30.41,30.29,0,-999,0,0.00
2013-1-15,27,22,15,18,15,10,82,73,62,30.31,30.10,0,-999,0,0.00
2013-1-16,40,27,16,24,16,10,82,66,41,30.11,30.03,0,-999,0,0.00
2013-1-17,44,33,27,28,22,18,84,65,40,30.42,30.09,0,-999,0,0.00
2013-1-18,56,42,27,26,22,17,75,48,28,30.44,30.14,0,-999,0,0.00
2013-1-19,62,49,40,33,29,22,64,47,32,30.18,30.01,0,-999,0,0.00
2013-1-20,50,38,27,32,18,11,73,46,22,30.25,30.16,0,-999,0,0.00
2013-1-21,31,23,17,12,9,5,68,53,41,30.32,30.23,0,-999,0,0.00
2013-1-22,32,24,17,13,7,2,63,48,38,30.33,30.19,0,-999,0,0.00
2013-1-23,55,37,24,36,24,14,72,60,46,30.28,30.11,0,-999,0,0.00
2013-1-24,34,27,20,20,10,5,60,48,33,30.37,30.10,0,-999,0,0.00
2013-1-25,47,35,27,24,21,13,81,59,38,30.21,30.06,0,-999,0,0.00
2013-1-26,57,44,30,23,20,18,62,41,23,30.27,30.14,0,-999,0,0.00
2013-1-27,44,42,40,34,29,21,74,62,40,30.15,30.05,0,-999,0,0.00
2013-1-28,74,67,61,58,56,55,82,69,52,29.95,29.82,0,-999,0,0.00
2013-1-29,68,60,51,59,54,47,90,82,70,29.83,29.46,0,-999,0,0.00
2013-1-30,51,34,26,48,27,16,90,77,65,29.93,29.41,0,-999,0,0.00
2013-1-31,36,25,11,24,14,-1,81,63,50,30.37,29.94,0,-999,0,0.00
2013-2-1,33,20,4,13,4,-4,72,50,33,30.41,30.14,0,-999,0,0.00
2013-2-2,48,37,25,31,23,11,77,58,47,30.17,30.06,0,-999,0,0.00
2013-2-3,49,42,34,29,22,17,68,47,30,30.22,29.93,0,-999,0,0.00
2013-2-4,59,48,34,39,28,19,75,47,36,29.94,29.80,0,-999,0,0.00
2013-2-5,60,44,28,34,28,24,84,57,30,30.07,29.87,0,-999,0,0.00
2013-2-6,58,46,35,34,29,26,69,52,34,30.13,29.97,0,-999,0,0.00
2013-2-7,56,48,41,48,40,33,88,76,62,30.05,29.86,0,-999,0,0.00
2013-2-8,44,35,29,36,28,24,87,74,57,30.29,30.05,0,-999,0,0.00
2013-2-9,42,35,28,33,27,23,83,73,52,30.22,29.84,0,-999,0,0.00
2013-2-10,60,48,37,49,35,24,88,65,31,29.94,29.59,0,-999,0,0.00
2013-2-11,49,39,31,28,24,21,73,56,36,30.14,29.92,0,-999,0,0.00
2013-2-12,46,38,30,31,25,21,86,61,39,30.12,29.90,0,-999,0,0.00
2013-2-13,45,37,31,34,29,28,87,75,56,29.93,29.86,0,-999,0,0.00
2013-2-14,53,44,36,32,27,22,63,53,40,30.10,29.86,0,-999,0,0.00
2013-2-15,42,34,25,28,16,7,73,48,28,30.25,30.09,0,-999,0,0.00
2013-2-16,36,28,20,20,15,8,81,57,39,30.24,30.08,0,-999,0,0.00
2013-2-17,60,45,31,30,21,14,51,39,26,30.09,29.81,0,-999,0,0.00
2013-2-18,55,47,31,47,35,18,84,65,49,30.01,29.53,0,-999,0,0.00
2013-2-19,39,30,22,20,12,5,67,50,26,30.25,29.99,0,-999,0,0.00
2013-2-20,31,26,21,10,6,3,56,43,33,30.27,30.10,0,-999,0,0.00
2013-2-21,32,29,26,28,22,8,86,76,37,30.11,29.68,0,-999,0,0.00
2013-2-22,33,27,22,29,20,16,87,76,65,30.02,29.75,0,-999,0,0.00
2013-2-23,37,28,17,21,17,12,83,66,47,30.03,29.92,0,-999,0,0.00
2013-2-24,52,39,25,30,24,16,70,55,42,30.01,29.88,0,-999,0,0.00
2013-2-25,47,37,32,31,26,21,86,65,36,29.90,29.38,0,-999,0,0.00
2013-2-26,33,32,31,29,28,27,88,87,84,29.74,29.28,0,-999,0,0.00
2013-2-27,33,31,29,27,25,23,86,80,73,29.95,29.73,0,-999,0,0.00
2013-2-28,31,29,28,24,22,21,79,75,72,30.10,29.93,0,-999,0,0.00
2013-3-1,29,27,26,23,21,20,83,78,69,30.17,30.07,0,-999,0,0.00
2013-3-2,30,25,18,21,15,11,82,65,49,30.25,30.15,0,-999,0,0.00
2013-3-3,46,34,18,24,18,11,78,54,37,30.17,29.82,0,-999,0,0.00
2013-3-4,62,46,37,41,33,24,82,60,42,29.83,29.62,0,-999,0,0.00
2013-3-5,44,35,30,40,24,17,86,63,45,30.21,29.77,0,-999,0,0.00
2013-3-6,43,32,26,21,18,15,64,55,39,30.34,30.21,0,-999,0,0.00
2013-3-7,59,43,28,28,23,19,70,49,25,30.28,30.16,0,-999,0,0.00
2013-3-8,58,45,36,35,30,27,73,56,35,30.26,30.06,0,-999,0,0.00
2013-3-9,70,55,43,51,40,32,83,58,32,30.07,29.73,0,-999,0,0.00
2013-3-10,58,49,33,52,44,28,89,84,60,29.82,29.62,0,-999,0,0.00
2013-3-11,39,31,27,29,24,21,87,74,51,29.97,29.78,0,-999,0,0.00
2013-3-12,50,38,27,27,21,17,73,53,32,30.25,29.96,0,-999,0,0.00
2013-3-13,46,35,25,21,18,16,72,52,32,30.42,30.24,0,-999,0,0.00
2013-3-14,69,50,34,38,27,17,53,41,28,30.34,30.07,0,-999,0,0.00
2013-3-15,79,64,51,46,40,37,66,45,24,30.10,29.75,0,-999,0,0.00
2013-3-16,65,54,41,45,40,34,74,59,42,29.93,29.73,0,-999,0,0.00
2013-3-17,41,37,35,35,33,31,88,86,75,29.94,29.68,0,-999,0,0.00
2013-3-18,51,42,37,38,33,23,89,74,36,30.01,29.65,0,-999,0,0.00
2013-3-19,47,38,26,28,20,11,76,51,24,30.20,30.01,0,-999,0,0.00
2013-3-20,40,34,26,29,16,3,86,54,22,30.28,30.07,0,-999,0,0.00
2013-3-21,34,28,22,26,16,7,86,62,35,30.08,29.85,0,-999,0,0.00
2013-3-22,37,32,29,32,29,25,88,85,81,29.91,29.84,0,-999,0,0.00
2013-3-23,42,37,33,37,32,29,88,82,69,29.92,29.72,0,-999,0,0.00
2013-3-24,40,33,27,37,28,19,88,83,72,29.97,29.54,0,-999,0,0.00
2013-3-25,32,27,22,24,19,16,80,73,66,30.22,29.94,0,-999,0,0.00
2013-3-26,39,31,21,25,21,16,84,67,49,30.34,30.22,0,-999,0,0.00
2013-3-27,54,40,26,26,22,18,72,50,30,30.30,30.18,0,-999,0,0.00
2013-3-28,69,54,44,39,33,25,59,45,33,30.22,30.12,0,-999,0,0.00
2013-3-29,65,55,47,53,45,37,91,70,48,30.19,30.13,0,-999,0,0.00
2013-3-30,62,53,49,52,45,-100,87,77,66,30.13,29.86,0,-999,0,0.00
2013-3-31,66,55,47,48,43,37,90,66,37,29.96,29.85,0,-999,0,0.00
2013-4-1,53,45,39,37,30,18,82,56,35,30.20,29.94,0,-999,0,0.00
2013-4-2,42,38,35,26,20,18,64,48,40,30.27,30.18,0,-999,0,0.00
2013-4-3,54,42,29,21,19,16,62,41,23,30.28,30.16,0,-999,0,0.00
2013-4-4,55,46,39,27,24,20,62,43,28,30.17,30.04,0,-999,0,0.00
2013-4-5,71,54,37,39,30,23,58,42,25,30.17,29.98,0,-999,0,0.00
2013-4-6,74,62,53,44,38,31,50,40,27,29.98,29.76,0,-999,0,0.00
2013-4-7,77,66,54,55,49,43,77,54,36,29.92,29.74,0,-999,0,0.00
2013-4-8,76,66,59,57,54,51,76,65,48,29.82,29.74,0,-999,0,0.00
2013-4-9,76,68,61,59,56,53,74,65,51,29.84,29.74,0,-999,0,0.00
2013-4-10,71,58,40,62,52,36,89,81,64,29.83,29.66,0,-999,0,0.00
2013-4-11,46,39,34,37,31,28,89,75,51,29.78,29.70,0,-999,0,0.00
2013-4-12,51,42,34,33,29,24,79,62,44,30.00,29.74,0,-999,0,0.00
2013-4-13,70,54,36,42,35,29,78,52,31,30.06,29.82,0,-999,0,0.00
2013-4-14,79,66,55,55,44,40,74,48,25,29.82,29.53,0,-999,0,0.00
2013-4-15,77,60,51,62,53,40,88,76,59,29.87,29.70,0,-999,0,0.00
2013-4-16,54,49,46,50,45,43,89,87,80,30.04,29.86,0,-999,0,0.00
2013-4-17,83,67,47,65,56,44,93,71,49,30.02,29.65,0,-999,0,0.00
2013-4-18,74,53,38,63,46,26,91,78,63,29.88,29.56,0,-999,0,0.00
2013-4-19,51,41,34,29,25,22,70,54,35,30.07,29.87,0,-999,0,0.00
2013-4-20,65,49,35,36,29,25,70,48,31,30.22,30.06,0,-999,0,0.00
2013-4-21,68,58,48,39,34,32,60,43,27,30.30,30.15,0,-999,0,0.00
2013-4-22,69,59,49,41,35,30,58,42,25,30.21,29.93,0,-999,0,0.00
2013-4-23,60,49,35,50,41,32,90,77,49,30.05,29.86,0,-999,0,0.00
2013-4-24,52,40,33,32,29,24,88,66,35,30.26,30.03,0,-999,0,0.00
2013-4-25,68,52,36,38,31,24,69,47,28,30.34,30.22,0,-999,0,0.00
2013-4-26,58,49,46,43,41,31,88,75,36,30.34,30.16,0,-999,0,0.00
2013-4-27,55,50,46,50,46,43,89,87,82,30.19,29.97,0,-999,0,0.00
2013-4-28,71,56,48,53,47,44,89,72,45,30.02,29.88,0,-999,0,0.00
2013-4-29,85,69,53,61,53,47,81,60,32,29.91,29.76,0,-999,0,0.00
2013-4-30,83,74,62,56,49,42,76,44,26,29.91,29.80,0,-999,0,0.00
2013-5-1,83,70,58,61,55,48,77,59,41,30.09,29.91,0,-999,0,0.00
2013-5-2,65,50,36,58,44,31,89,83,75,30.22,30.06,0,-999,0,0.00
2013-5-3,36,34,33,32,30,29,88,87,85,30.16,29.85,0,-999,0,0.00
2013-5-4,46,39,33,36,32,29,88,79,60,29.97,29.79,0,-999,0,0.00
2013-5-5,57,48,37,48,41,33,88,78,68,30.03,29.96,0,-999,0,0.00
2013-5-6,68,58,51,54,50,46,90,75,56,30.05,29.96,0,-999,0,0.00
2013-5-7,76,62,48,55,49,45,91,66,35,30.06,29.98,0,-999,0,0.00
2013-5-8,76,65,56,58,53,48,77,66,49,30.09,29.94,0,-999,0,0.00
2013-5-9,76,67,58,61,57,53,88,70,54,29.98,29.88,0,-999,0,0.00
2013-5-10,66,60,51,57,54,47,89,80,59,30.03,29.89,0,-999,0,0.00
2013-5-11,70,57,46,53,42,30,91,63,26,30.18,30.01,0,-999,0,0.00
2013-5-12,65,52,36,40,31,26,78,48,26,30.27,30.15,0,-999,0,0.00
2013-5-13,78,63,46,52,41,30,71,46,32,30.19,30.03,0,-999,0,0.00
2013-5-14,86,74,61,58,50,46,65,45,28,30.05,29.94,0,-999,0,0.00
2013-5-15,84,71,63,66,57,49,87,62,49,29.99,29.90,0,-999,0,0.00
2013-5-16,70,65,62,61,47,-100,87,81,68,29.94,29.87,0,-999,0,0.00
2013-5-17,79,69,62,62,56,-100,89,73,53,29.95,29.88,0,-999,0,0.00
2013-5-18,82,72,63,70,65,59,90,78,64,29.96,29.84,0,-999,0,0.00
2013-5-19,86,77,69,69,66,60,89,71,42,29.88,29.69,0,-999,0,0.00
2013-5-20,76,68,61,68,62,56,90,80,66,29.88,29.72,0,-999,0,0.00
2013-5-21,71,65,59,61,57,53,88,77,64,29.86,29.60,0,-999,0,0.00
2013-5-22,72,63,54,59,54,51,90,73,54,29.95,29.75,0,-999,0,0.00
2013-5-23,72,62,52,57,52,48,89,72,54,30.19,29.94,0,-999,0,0.00
2013-5-24,74,61,49,51,44,36,89,58,26,30.34,30.19,0,-999,0,0.00
2013-5-25,82,68,56,65,52,39,71,57,50,30.25,30.09,0,-999,0,0.00
2013-5-26,85,74,63,66,61,56,80,66,50,30.14,30.00,0,-999,0,0.00
2013-5-27,82,74,65,68,63,59,82,69,58,30.02,29.79,0,-999,0,0.00
2013-5-28,81,74,69,66,63,60,83,69,56,29.90,29.78,0,-999,0,0.00
2013-5-29,82,75,68,65,62,59,79,65,52,29.93,29.78,0,-999,0,0.00
2013-5-30,83,72,62,66,62,59,91,72,53,29.86,29.76,0,-999,0,0.00
2013-5-31,84,73,63,71,66,59,92,78,62,29.88,29.72,0,-999,0,0.00
2013-6-1,75,67,60,65,59,-100,89,78,54,29.98,29.71,0,-999,0,0.00
2013-6-2,63,60,53,56,53,48,86,78,69,30.06,29.97,0,-999,0,0.00
2013-6-3,77,62,48,58,52,44,91,70,46,30.08,29.94,0,-999,0,0.00
2013-6-4,75,66,58,62,57,52,83,72,57,30.05,29.94,0,-999,0,0.00
2013-6-5,73,65,60,65,59,55,88,82,71,30.00,29.87,0,-999,0,0.00
2013-6-6,71,63,55,61,57,52,91,81,64,29.94,29.89,0,-999,0,0.00
2013-6-7,74,62,51,57,52,48,91,72,45,29.98,29.92,0,-999,0,0.00
2013-6-8,81,67,51,58,53,47,86,63,39,29.97,29.87,0,-999,0,0.00
2013-6-9,78,68,60,67,58,55,89,71,52,29.96,29.83,0,-999,0,0.00
2013-6-10,87,73,58,69,61,54,88,67,44,29.94,29.82,0,-999,0,0.00
2013-6-11,93,81,71,70,65,60,80,61,38,30.00,29.93,0,-999,0,0.00
2013-6-12,90,82,73,72,68,64,80,63,45,29.98,29.88,0,-999,0,0.00
2013-6-13,84,76,67,69,64,56,80,66,51,30.05,29.90,0,-999,0,0.00
2013-6-14,88,76,63,69,63,59,87,67,48,30.07,29.97,0,-999,0,0.00
2013-6-15,76,71,68,68,63,58,89,75,62,30.11,29.93,0,-999,0,0.00
2013-6-16,89,74,67,74,67,63,91,78,55,30.05,29.93,0,-999,0,0.00
2013-6-17,73,70,65,69,65,60,89,87,82,30.02,29.89,0,-999,0,0.00
2013-6-18,87,70,58,68,61,55,92,76,47,30.05,29.95,0,-999,0,0.00
2013-6-19,88,75,61,68,63,58,89,69,45,30.08,30.00,0,-999,0,0.00
2013-6-20,86,74,68,68,64,61,80,70,51,30.11,30.05,0,-999,0,0.00
2013-6-22,91,85,73,73,69,64,74,60,49,30.10,29.98,0,-999,0,0.00
2013-6-23,91,81,70,73,68,64,85,67,49,30.06,29.94,0,-999,0,0.00
2013-6-24,92,82,72,72,68,66,82,65,46,30.09,29.97,0,-999,0,0.00
2013-6-25,90,82,73,72,68,65,77,64,49,30.00,29.85,0,-999,0,0.00
2013-6-26,92,83,75,76,70,65,78,66,52,29.92,29.82,0,-999,0,0.00
2013-6-27,94,84,74,78,74,70,89,73,56,29.99,29.88,0,-999,0,0.00
2013-6-28,87,77,67,74,66,57,91,70,47,29.95,29.84,0,-999,0,0.00
2013-6-29,82,72,62,60,57,52,82,61,37,29.86,29.78,0,-999,0,0.00
2013-6-30,79,68,61,63,59,57,88,74,52,29.98,29.82,0,-999,0,0.00
2013-7-1,78,68,58,59,57,51,90,69,45,30.05,29.97,0,-999,0,0.00
2013-7-2,78,66,54,58,53,49,86,65,41,30.09,30.02,0,-999,0,0.00
2013-7-3,84,72,58,63,56,52,81,60,38,30.12,30.03,0,-999,0,0.00
2013-7-4,86,73,59,64,57,52,83,60,34,30.10,30.00,0,-999,0,0.00
2013-7-5,89,75,63,65,58,54,78,58,33,30.07,29.98,0,-999,0,0.00
2013-7-6,90,77,66,66,61,57,81,61,32,30.05,29.97,0,-999,0,0.00
2013-7-7,92,81,70,69,64,60,77,57,35,30.08,30.01,0,-999,0,0.00
2013-7-8,92,81,73,72,66,61,76,63,41,30.13,30.06,0,-999,0,0.00
2013-7-9,95,84,74,72,68,65,76,61,42,30.10,29.98,0,-999,0,0.00
2013-7-10,92,81,72,75,70,66,88,70,44,30.06,29.95,0,-999,0,0.00
2013-7-11,88,78,68,72,64,55,88,67,34,30.07,30.00,0,-999,0,0.00
2013-7-12,87,74,62,60,57,53,81,58,31,30.11,30.03,0,-999,0,0.00
2013-7-13,84,73,60,63,58,52,78,60,38,30.10,30.00,0,-999,0,0.00
2013-7-14,88,75,62,62,59,56,85,60,35,30.12,30.03,0,-999,0,0.00
2013-7-15,90,76,66,69,64,60,88,69,39,30.21,30.12,0,-999,0,0.00
2013-7-16,92,79,70,72,69,66,91,73,44,30.32,30.24,0,-999,0,0.00
2013-7-17,94,81,70,73,68,66,88,67,41,30.36,30.23,0,-999,0,0.00
2013-7-18,96,84,73,70,66,63,75,58,35,30.26,30.13,0,-999,0,0.00